This is the latest recevied weather packets stored in our database for station/object WY7EM. If no packets are shown the sender has not sent any weather packets the latest 10 day(s).
| Time | Temp. | Humidity | Pressure | Rain* | Wind** | Luminosity | Snow |
|---|---|---|---|---|---|---|---|
| 1777566337 | 18.33° C | 22% | 1015.4 hPa | 0 mm | - | 556 W/m² | - |
| 1777566035 | 17.78° C | 23% | 1015.5 hPa | 0 mm | - | 540 W/m² | - |
| 1777565730 | 17.22° C | 23% | 1015.4 hPa | 0 mm | - | 525 W/m² | - |
| 1777565427 | 17.78° C | 24% | 1015.5 hPa | 0 mm | - | 511 W/m² | - |
| 1777565123 | 17.78° C | 23% | 1015.4 hPa | 0 mm | - | 495 W/m² | - |
| 1777564819 | 17.22° C | 24% | 1015.3 hPa | 0 mm | - | 479 W/m² | - |
| 1777564514 | 17.22° C | 24% | 1015.6 hPa | 0 mm | - | 462 W/m² | - |
| 1777564210 | 16.67° C | 24% | 1015.3 hPa | 0 mm | - | 447 W/m² | - |
| 1777563906 | 17.22° C | 24% | 1015.5 hPa | 0 mm | - | 430 W/m² | - |
| 1777563603 | 16.67° C | 24% | 1015.5 hPa | 0 mm | - | 413 W/m² | - |
| 1777563302 | 16.67° C | 24% | 1015.5 hPa | 0 mm | - | 394 W/m² | - |
| 1777562999 | 16.11° C | 24% | 1015.4 hPa | 0 mm | - | 365 W/m² | - |
| 1777562695 | 16.11° C | 24% | 1015.4 hPa | 0 mm | - | 358 W/m² | - |
| 1777562394 | 15.56° C | 25% | 1015.6 hPa | 0 mm | - | 339 W/m² | - |
| 1777562090 | 16.11° C | 25% | 1015.6 hPa | 0 mm | - | 319 W/m² | - |
| 1777561788 | 15.56° C | 25% | 1015.7 hPa | 0 mm | - | 299 W/m² | - |
| 1777561483 | 15.56° C | 25% | 1015.6 hPa | 0 mm | - | 280 W/m² | - |
| 1777561179 | 15° C | 25% | 1015.6 hPa | 0 mm | - | 261 W/m² | - |
| 1777560873 | 15° C | 25% | 1015.7 hPa | 0 mm | - | 244 W/m² | - |
| 1777560571 | 15° C | 26% | 1015.5 hPa | 0 mm | - | 226 W/m² | - |
| 1777560269 | 15° C | 25% | 1015.5 hPa | 0 mm | - | 209 W/m² | - |
| 1777559967 | 14.44° C | 26% | 1015.6 hPa | 0 mm | - | 194 W/m² | - |
| 1777559667 | 14.44° C | 27% | 1015.5 hPa | 0 mm | - | 89 W/m² | - |
| 1777559365 | 13.89° C | 26% | 1015.6 hPa | 0 mm | - | 53 W/m² | - |
| 1777559061 | 13.89° C | 26% | 1015.6 hPa | 0 mm | - | 103 W/m² | - |
* Rain latest hour (hover to see other rain measurements)
** Current wind speed in m/s (hover to see current wind gust speed)